Change the Weather History Date:

Tuesday, May 28, 2013

  Actual Average Record
Temperature  
Mean Temperature 71 °F 66 °F  
Max Temperature 80 °F 74 °F 100 °F (1973)
Min Temperature 61 °F 59 °F 47 °F (1962)
Degree Days  
Heating Degree Days 0 1  
Month to date heating degree days 8 37  
Since 1 July heating degree days 1039 1213  
Cooling Degree Days 6 2  
Month to date cooling degree days 98 56  
Year to date cooling degree days 127 103  
Growing Degree Days 22 (Base 50)    
Moisture  
Dew Point 57 °F    
Average Humidity 65    
Maximum Humidity 90    
Minimum Humidity 39    
Precipitation  
Precipitation 0.00 in 0.01 in 1.16 in (1990)
Month to date precipitation 0.66 0.20  
Year to date precipitation 2.87 8.36  
Since 1 July precipitation 6.67 12.18  
Sea Level Pressure  
Sea Level Pressure 29.82 in    
Wind  
Wind Speed 7 mph (SSE)    
Max Wind Speed 17 mph    
Max Gust Speed 32 mph    
Visibility 10 miles    
Events      
T = Trace of Precipitation, MM = Missing Value Source: NWS Daily Summary

Daily Weather History Graph

Daily Weather History Graph

Search for Another Location

Airport or City:

Trip Planner

Search our weather history database for the weather conditions in past years. The results will help you decide how hot, cold, wet, or windy it might be!

Date:

Astronomy

May. 28, 2013 Rise Set
Actual Time 5:44 AM PDT 7:56 PM PDT
Civil Twilight 5:15 AM PDT 8:24 PM PDT
Nautical Twilight 4:41 AM PDT 8:59 PM PDT
Astronomical Twilight 4:03 AM PDT 9:36 PM PDT
Moon 11:29 PM PDT 9:33 AM PDT
Length of Visible Light 15h 08m
Length of Day
14h 11m
Waning Gibbous, 82% of the Moon is Illuminated
May 28
Waning Gibbous
May 31
Last Quarter
Jun 8
New
Jun 16
First Quarter
Jun 23
Full

Hourly Weather History & Observations

Time (PDT) Temp. Dew Point Humidity Pressure Visibility Wind Dir Wind Speed Gust Speed Precip Events Conditions
12:53 AM 63.0 °F 57.0 °F 81% 29.88 in 10.0 mi Calm Calm - N/A   Mostly Cloudy
1:05 AM 62.6 °F 57.2 °F 82% 29.88 in 10.0 mi SSE 3.5 mph - N/A   Mostly Cloudy
1:30 AM 60.8 °F 57.2 °F 88% 29.88 in 10.0 mi Calm Calm - N/A   Overcast
1:53 AM 61.0 °F 57.0 °F 87% 29.87 in 10.0 mi SSE 4.6 mph - N/A   Overcast
2:53 AM 64.0 °F 55.9 °F 75% 29.87 in 10.0 mi South 3.5 mph - N/A   Overcast
3:53 AM 64.0 °F 55.9 °F 75% 29.84 in 10.0 mi SSE 4.6 mph - N/A   Overcast
4:53 AM 64.0 °F 55.0 °F 73% 29.84 in 10.0 mi SE 5.8 mph - N/A   Mostly Cloudy
5:53 AM 64.0 °F 55.0 °F 73% 29.84 in 10.0 mi South 5.8 mph - N/A   Overcast
6:53 AM 64.9 °F 55.0 °F 70% 29.84 in 10.0 mi SE 4.6 mph - N/A   Overcast
7:53 AM 66.0 °F 55.0 °F 68% 29.85 in 10.0 mi SE 5.8 mph - N/A   Overcast
8:53 AM 66.9 °F 55.9 °F 68% 29.86 in 10.0 mi South 5.8 mph - N/A   Mostly Cloudy
9:53 AM 69.1 °F 57.0 °F 65% 29.84 in 10.0 mi South 8.1 mph - N/A   Mostly Cloudy
10:38 AM 69.8 °F 55.4 °F 60% 29.86 in 10.0 mi SSE 6.9 mph - N/A   Mostly Cloudy
10:53 AM 70.0 °F 57.0 °F 63% 29.85 in 10.0 mi SSE 8.1 mph - N/A   Overcast
11:53 AM 71.1 °F 55.9 °F 59% 29.84 in 10.0 mi South 9.2 mph - N/A   Mostly Cloudy
12:00 PM 71.6 °F 55.4 °F 57% 29.84 in 10.0 mi South 9.2 mph 18.4 mph N/A   Clear
12:53 PM 72.0 °F 55.9 °F 57% 29.83 in 10.0 mi SSE 9.2 mph - N/A   Partly Cloudy
1:53 PM 73.9 °F 55.9 °F 53% 29.80 in 10.0 mi South 9.2 mph - N/A   Clear
2:53 PM 79.0 °F 52.0 °F 39% 29.78 in 10.0 mi West 12.7 mph - N/A   Partly Cloudy
3:53 PM 77.0 °F 55.0 °F 47% 29.78 in 10.0 mi NW 9.2 mph - N/A   Partly Cloudy
4:28 PM 78.8 °F 55.4 °F 44% 29.78 in 10.0 mi Variable 5.8 mph - N/A   Partly Cloudy
4:53 PM 75.0 °F 57.0 °F 53% 29.77 in 10.0 mi South 5.8 mph - N/A   Clear
5:53 PM 73.9 °F 57.9 °F 57% 29.75 in 10.0 mi Variable 6.9 mph - N/A   Partly Cloudy
6:53 PM 71.1 °F 59.0 °F 66% 29.74 in 10.0 mi South 5.8 mph - N/A   Clear
7:53 PM 66.9 °F 60.1 °F 79% 29.74 in 9.0 mi South 6.9 mph - N/A   Partly Cloudy
8:53 PM 66.0 °F 59.0 °F 78% 29.75 in 10.0 mi Variable 5.8 mph - N/A   Clear
9:53 PM 64.9 °F 57.9 °F 78% 29.78 in 10.0 mi SSE 5.8 mph - N/A   Clear
10:53 PM 66.0 °F 59.0 °F 78% 29.79 in 10.0 mi SSE 6.9 mph - N/A   Partly Cloudy
11:32 PM 66.2 °F 60.8 °F 83% 29.78 in 10.0 mi SSE 8.1 mph - N/A   Mostly Cloudy
11:39 PM 66.2 °F 60.8 °F 83% 29.79 in 10.0 mi SSE 8.1 mph - N/A   Partly Cloudy
11:53 PM 64.0 °F 60.1 °F 87% 29.79 in 10.0 mi SSE 4.6 mph - N/A   Mostly Cloudy